Find OneWeb SL0369

NORAD ID: 49295 Int'l Des: 2021-090 Owner: ONEWEBN Country: UK Constellation: oneweb operational
LEOCIRCULARPOLARONEWEB_TYPE

Live Position

Loading 3D Globe...

About OneWeb SL0369

Description loading...

Upcoming Passes

Passes for default location (London). Set your location on the main map for personalized predictions.

Altitude History

Loading altitude history...

Two-Line Element Set

1 49295U 21090S 26125.95201801 .00000033 00000-0 49805-4 0 9999
2 49295 87.9144 313.3978 0001899 88.7420 271.3930 13.19724560220843
Epoch: May 5, 2026 • Age: 16 hours

Current Status

Altitude 1209.5 km
Velocity 7.25 km/s
Sub-Earth Point -58.19°S, 138.53°W
Launch Date Oct 14, 2021
Age 4.5 years
Type internet

Technical Details

Classification Payload
Mass 148.00 kg
Dry Mass 140.00 kg
Total Mass 148.00 kg
Length 1.30 m
Diameter 1.00 m
Span 5.00 m
Shape Trapezoid+2 pan
Manufacturer ONEWUS
Bus Type ARROW
Phase Status In Orbit
Owner/State ONEWEBN/UK

Most Searched